Other Public Products
Issued by NWS Grand Forks, ND

Home | Current Version | Previous Version | Graphics & Text | Print | Product List | Glossary On
Versions: 1 2 3 4 5 6 7 8 9 10 11 12 13 14 15 16 17 18 19 20 21 22 23 24 25 26 27 28 29 30 31 32 33 34 35 36 37 38 39 40 41 42 43 44 45 46 47 48 49 50
000
FPUS83 KFGF 310831
OPUFGF
PRAIRIE TO PINES WEATHER ROUNDUP
NATIONAL WEATHER SERVICE EASTERN NORTH DAKOTA/GRAND FORKS ND
200 AM CST SAT JAN 31 2015

 **SATELLITE DATA USED TO AUGMENT SKY COVER AT AUTOMATED STATIONS**
 *****  WEATHER ACROSS EASTERN NORTH DAKOTA  *****

CITY           SKY/WX    TMP DP  RH WIND       PRES   REMARKS
GRAND FORKS    CLOUDY    16  10  79 N20G26    30.24F WCI  -1
GRAND FORKS AF MIX PCPN  16   9  73 NE21      30.25S WCI  -2
GRAND CITY NWS   N/A     16 N/A N/A N12         N/A  WCI   3
BUXTON           N/A     17  14  91 N14G30      N/A  WCI   2
DEVILS LAKE    CLOUDY    16   9  73 N13       30.22S WCI   2
FARGO          CLOUDY    21  15  78 N18       30.21R WCI   6
WAHPETON ARPT  CLOUDY    23  19  86 N16       30.19R WCI  10
$$

 *****  WEATHER ACROSS CENTRAL AND WESTERN NORTH DAKOTA  *****

CITY           SKY/WX    TMP DP  RH WIND       PRES   REMARKS
JAMESTOWN      CLOUDY    22  17  81 N15       30.18S WCI   9
BISMARCK       CLOUDY    24  23  96 NE13      30.20S WCI  12
MINOT          CLOUDY    19  14  81 N13       30.23S WCI   6
MINOT AFB      CLOUDY    19  18  93 NE10      30.24S WCI   8
GARRISON         N/A     22  19  89 NE8       30.19S WCI  12
WILLISTON      CLOUDY    23  20  88 E7        30.21R WCI  15
DICKINSON      FOG       25  23  92 E12       30.11S VSB 1/2 WCI  14
HETTINGER      CLEAR     19  16  88 CALM      30.12R
$$

 *****  OTHER OBSERVATIONS NORTHEAST NORTH DAKOTA  *****

CITY           SKY/WX    TMP DP  RH WIND       PRES   REMARKS
WALHALLA       FLURRIES  10  10 100 N16G23    30.33R WCI  -7
LANGDON        NOT AVBL
CAVALIER       CLOUDY    10   7  85 N15       30.31R WCI  -6
GRAFTON        NOT AVBL
CANDO          CLOUDY     9   3  78 N18G24    30.30R WCI -10
FORT TOTTEN      N/A     16  12  84 NE7       29.95S WCI   6
ROLLA          CLOUDY     5   0  78 N20       30.28R WCI -15
RUGBY          CLOUDY    16  12  86 NE18      30.25R WCI  -1
 ***** THE ABOVE OBSERVATIONS ARE NON NWS ARE NOT QUALITY
        CONTROLLED AND MAY MIS-REPORT RAIN FOR SNOW...
$$

 *****  OTHER OBSERVATIONS SOUTHEAST NORTH DAKOTA *****

CITY           SKY/WX    TMP DP  RH WIND       PRES   REMARKS
COOPERSTOWN    NOT AVBL
VALLEY CITY    CLOUDY    19  19 100 N14       30.19S WCI   6
OAKES            N/A     23  23 100 N13       30.20R WCI  11
GWINNER        CLOUDY    27  27 100 N13       30.21R WCI  16
SHEYENNE NWR     N/A     24  19  81 N10       29.95S WCI  14
BUFFALO        NOT AVBL
WYNDMERE         N/A     25  21  86 N15         N/A  WCI  12
 ***** THE ABOVE OBSERVATIONS ARE NON NWS ARE NOT QUALITY
       CONTROLLED AND MAY MIS-REPORT RAIN FOR SNOW...
$$

  *****  WEATHER ACROSS NORTHERN MINNESOTA  *****

CITY           SKY/WX    TMP DP  RH WIND       PRES   REMARKS
FLAG ISLAND    PTCLDY     7   1  78 NW24      30.19R WCI -15
WARROAD        FLURRIES  12   7  79 NW17      30.21R WCI  -5
ROSEAU         FLURRIES  12   7  79 N14       30.22R WCI  -3
HALLOCK        PTCLDY     9   1  72 N20       30.27S WCI -11
THF RVR FALLS  CLOUDY    16  10  79 N16G24    30.21R WCI   0
HALSTAD          N/A     17  12  81 N20         N/A  WCI   1
FOSSTON        CLOUDY    18  16  93 N17       30.17R WCI   2
BAUDETTE       CLOUDY    14   8  77 N14       30.16R WCI  -1
WASKISH        CLOUDY    18  14  86 NW8       30.14R WCI   7
CROOKSTON      CLOUDY    16  12  86 N18G25    30.23S WCI  -1
$$
  *****  WEATHER ACROSS CENTRAL AND WEST MINNESOTA  *****

CITY           SKY/WX    TMP DP  RH WIND       PRES   REMARKS
BEMIDJI        CLOUDY    21  18  88 NW9       30.12R WCI  11
PARK RAPIDS    CLOUDY    24  20  84 N13G24    30.08S WCI  12
WADENA         CLOUDY    21  21 100 N12       30.10S WCI   9
DETROIT LAKES  CLOUDY    21  19  93 N14G21    30.15R WCI   8
MOORHEAD       CLOUDY    19  19 100 N20       30.21R WCI   4
FERGUS FALLS   CLOUDY    21  19  93 N21       30.19R WCI   6
ELBOW LAKE     CLOUDY    23  22  94 N12       30.14R WCI  12
MORRIS MN      MOCLDY    25  21  86 NW10      30.14R WCI  15
STAPLES        MOCLDY    19  19 100 NW9       30.11R WCI   9
WHEATON        CLOUDY    25  21  86 NW15      30.20R WCI  12
$$
  *****  WEATHER ELSEWHERE ACROSS MINNESOTA  *****

CITY           SKY/WX    TMP DP  RH WIND       PRES   REMARKS
DULUTH         CLOUDY    19  12  74 W6        30.06S WCI  11
INTRNTL FALLS  CLOUDY    16  11  80 N15       30.11S WCI   1
ELY            CLOUDY    16  10  79 W3        30.06S
CLOQUET        CLOUDY    19  12  73 CALM      30.08S
BRAINERD       CLOUDY    24  19  81 W3        30.10R
HIBBING        CLOUDY    18   8  65 CALM      30.07S
ALEXANDRIA     MOCLDY    22  19  89 N9        30.11R WCI  12
SAINT CLOUD    CLEAR     16  14  92 CALM      30.10F
MINNEAPOLIS    PTCLDY    21  16  81 CALM      30.13S
$$

  *****  WEATHER ACROSS SOUTH DAKOTA  *****

CITY           SKY/WX    TMP DP  RH WIND       PRES   REMARKS
SIOUX FALLS    PTCLDY    27  24  89 CALM      30.11S
BROOKINGS      NOT AVBL
WATERTOWN      PTCLDY    25  23  92 NE14      30.12R WCI  13
HURON          CLEAR     25  22  88 N9        30.12S WCI  15
SISSETON         N/A     26  25  96 N16       30.17R WCI  14
ABERDEEN       CLOUDY    26  23  88 N13       30.18R WCI  15
MITCHELL       PTCLDY    25  23  92 NW7       30.11F WCI  17
PIERRE         MOCLDY    28  23  81 N10       30.10F WCI  19
MOBRIDGE       CLOUDY    29  26  89 NE10      30.13S FOG     WCI  20
RAPID CITY     CLOUDY    29  22  75 N8        30.07F WCI  21
$$

  *****  SOME WEATHER IN NEARBY STATES *****

CITY           SKY/WX    TMP DP  RH WIND       PRES   REMARKS
GLASGOW MT     CLOUDY    29  26  89 E22       30.07F WCI  15
GREAT FALLS MT CLOUDY    34  19  54 SW13      29.96F WCI  25
CHEYENNE WY    CLOUDY    32  23  69 NW5       30.00F
SCOTTSBLUFF NE CLOUDY    35  26  69 N6        30.03S
OMAHA NE       CLOUDY    33  26  75 SE9       30.22F
DES MOINES IA  PTCLDY    27  18  69 S8        30.23F WCI  19
DAVENPORT IA   PTCLDY    26  17  68 S12       30.29F WCI  16
CHICAGO IL     CLOUDY    23  16  74 SW5       30.30F WCI  17
EAU CLAIRE WI  CLOUDY    20  10  65 CALM      30.14F
LA CROSSE WI   CLEAR     24  13  62 S8        30.18F WCI  15
$$

  *****  SOME NATIONAL WEATHER *****

CITY           SKY/WX    TMP DP  RH WIND       PRES   REMARKS
LA GUARDIA NY  PTCLDY    18   6  59 NW16G32   30.06R WCI   3
RALEIGH NC     PTCLDY    27   8  44 NW5       30.32R WCI  22
ATLANTA GA     PTCLDY    33  20  58 N9        30.32S
NEW ORLEANS LA PTCLDY    50  34  54 E9        30.31S
OKLAHOMA CITY  CLOUDY    44  27  51 SE10      30.22F
ALBUQUERQUE NM CLOUDY    35  32  88 N5        29.99F
SALT LAKE CITY CLOUDY    40  36  86 W9        29.96F
LOS ANGELES CA PTCLDY    58  57  97 SE3       29.87R
BOISE ID       CLEAR     29  26  89 SE5       30.14F WCI  24
SEATTLE WA     FOG       40  39  97 CALM      30.26R VSB 1/8
$$

*** WEATHER ACROSS MANITOBA...SASKATCHEWAN AND ONTARIO ***
                ***ONTARIO***

CITY           SKY/WX    TMP DP  RH WIND       PRES   REMARKS
GERALDTON      FLURRIES   1  -2  85 S2        29.99F
THUNDER BAY    CLOUDY     7   5  92 SW6       30.09F WCI  -3
SIOUX LOOKOUT  FLURRIES   9   5  85 NW14      30.08R WCI  -8
TORONTO        MOCLDY     3  -2  78 W2        30.35S
BIG TROUT LK   PTCLDY   -20 -27  69 NW8       30.19R WCI -39
PICKLE LAKE    NOT AVBL
DRYDEN         FLURRIES   9   5  85 NW10G18   30.11R WCI  -6
KENORA         FLURRIES   9   3  78 N10G21    30.15R WCI  -6
$$
                *** MANITOBA***

CITY           SKY/WX    TMP DP  RH WIND       PRES   REMARKS
BRANDON        MOCLDY     5  -4  66 N6        30.35R WCI  -6
DAUPHIN        CLEAR      0  -6  78 NE17      30.44S WCI -21
ISLAND LAKE    CLEAR    -20 -27  69 NW7       30.36R WCI -37
PILOT MOUND      N/A      3  -2  78 N15         N/A  WCI -15
THE PAS        CLEAR    -17 -26  63 N12G17    30.57R WCI -38
THOMPSON       CRYSTALS -24 -33  62 NW9       30.46R WCI -45
WINNIPEG       PTCLDY     3  -4  72 N18G26    30.34R WCI -17
LYNN LAKE      CLEAR    -27 -35  68 NW9       30.49R WCI -49
CHURCHILL      BLWGSNOW -24 -29  76 NW26G38   30.27S VSB 1/4 WCI -57
GILLAM         CLEAR    -27 -36  62 NW13      30.35R WCI -53
$$
                ***SASKATCHEWAN***

CITY           SKY/WX    TMP DP  RH WIND       PRES   REMARKS
ESTEVAN        LGT SNOW  16  14  93 NE14      30.25S WCI   1
KINDERSLEY     LGT SNOW  10   5  79 E25       30.30R DRFTSNOWWCI -10
LLOYDMINSTER   MOCLDY     0  -4  85 NE12G17   30.42R WCI -18
PRINCE ALBERT  PTCLDY    -8 -13  77 N6        30.53R WCI -21
REGINA         LGT SNOW   9   5  85 NE16      30.32R FOG     WCI  -9



USA.gov is the U.S. government's official web portal to all federal, state and local government web resources and services.